Location: Harwich
(41.7160°N, 69.9939°W)
Time: 10:30:34
(UTC+02:00)

A-11 Canister half - Pass Details

Date: 28 February 2024
Orbit: 1513 x 1686 km, 47.2° (Epoch: 24 April)

Event Time Altitude Azimuth Distance (km) Brightness Sun altitude
Exits shadow 06:30:45 17° 68° (ENE) 3,409 10.9 -55.4°
Drops below altitude 10° 06:32:27 10° 66° (ENE) 3,914 11.3 -55.3°
Sets 06:35:36 0° 63° (ENE) 4,885 12.0 -55.1°
